Tiempo Historia de Benton Harbor, MI

Change the Weather History Date:

Martes, Marzo 20, 2012

  Actual Average Record
Temperature  
Temperatura media 73 ° F -  
Temperatura máxima 82 ° F 45 ° F 82 ° F (2012)
Temperatura mínima 64 ° F 29 ° F 9 ° F (1988)
Cooling Degree Days 8    
Growing Degree Days 23 (Base 50)    
Moisture  
Punto de rocío 55 ° F    
Average Humidity 55    
Maximum Humidity 68    
Minimum Humidity 34    
Precipitación  
Precipitación 0.00 pul - - ()
Presión al nivel del mar  
Presión al nivel del mar 30.02 pul    
Viento  
Velocidad del viento 8 mph (SSE)    
Velocidad máxima del viento 20 mph    
Max Gust Speed 28 mph    
Visibilidad 10 Millas    
Eventos      
Averages and records for this station are not official NWS values.
T = Trace of Precipitation, MM = Missing Value Source: NWS Daily Summary

Daily Weather History Graph

Daily Weather History Graph

Search for Another Location

Airport:

Trip Planner

Search our weather history database for the weather conditions in past years. The results will help you decide how hot, cold, wet, or windy it might be!

Date:

Astronomía

Mar. 20, 2012 Salida Puesta
Hora real 7:48 AM EDT 7:58 PM EDT
Crepúsculo civil 7:20 AM EDT 8:26 PM EDT
Crepúsculo náutico 6:47 AM EDT 8:59 PM EDT
Crepúsculo astronómico 6:14 AM EDT 9:32 PM EDT
Luna 6:31 AM EDT (3/20) 6:25 PM EDT (3/20)
Horas de luz 13h 06m
Horas de luz
12h 10m
Creciente menguante, 4% of the Moon is Illuminated
Mar 20
Creciente menguante
Mar 22
Nueva
Mar 30
Cuarto creciente
Abr 6
Luna llena
Abr 13
Cuarto menguante

Hourly Weather History & Observations

Hora (EDT) Temp. Índice de calor Punto de rocío Humedad Presión Visibilidad Wind Dir Velocidad del viento Velocidad de ráfagas Precip Eventos Condiciones
12:53 AM 71.1 ° F - 57.0 ° F 61% 29.96 pul 10.0 mi SSE 8.1 mph - N/A   Despejado
1:53 AM 70.0 ° F - 57.0 ° F 63% 29.96 pul 10.0 mi SSE 8.1 mph - N/A   Despejado
2:53 AM 69.1 ° F - 55.9 ° F 63% 29.98 pul 10.0 mi SSE 5.8 mph - N/A   Despejado
3:53 AM 68.0 ° F - 55.0 ° F 63% 29.99 pul 10.0 mi SSE 4.6 mph - N/A   Despejado
4:53 AM 66.0 ° F - 55.0 ° F 68% 29.99 pul 10.0 mi SE 6.9 mph - N/A   Despejado
5:53 AM 64.9 ° F - 54.0 ° F 68% 30.00 pul 10.0 mi SE 6.9 mph - N/A   Despejado
6:53 AM 64.9 ° F - 54.0 ° F 68% 30.01 pul 10.0 mi SE 5.8 mph - N/A   Despejado
7:53 AM 64.9 ° F - 54.0 ° F 68% 30.04 pul 10.0 mi SE 5.8 mph - N/A   Despejado
8:53 AM 64.9 ° F - 54.0 ° F 68% 30.05 pul 10.0 mi SE 6.9 mph - N/A   Despejado
9:53 AM 68.0 ° F - 55.0 ° F 63% 30.06 pul 10.0 mi SE 8.1 mph - N/A   Despejado
10:53 AM 73.0 ° F - 55.9 ° F 55% 30.07 pul 10.0 mi SSE 8.1 mph - N/A   Despejado
11:53 AM 77.0 ° F - 57.0 ° F 50% 30.06 pul 10.0 mi Sur 8.1 mph 16.1 mph N/A   Despejado
12:53 PM 80.1 ° F 80.2 ° F 55.9 ° F 43% 30.06 pul 10.0 mi Sur 17.3 mph 23.0 mph N/A   Despejado
1:53 PM 82.0 ° F 81.2 ° F 53.1 ° F 37% 30.04 pul 10.0 mi SSO 19.6 mph 26.5 mph N/A   Despejado
2:53 PM 82.9 ° F - 52.0 ° F 34% 30.02 pul 10.0 mi Sur 15.0 mph 27.6 mph N/A   Despejado
4:53 PM 82.9 ° F 81.8 ° F 53.1 ° F 36% 30.00 pul 10.0 mi SSO 13.8 mph 20.7 mph N/A   Parcialmente nublado
5:53 PM 82.9 ° F 81.8 ° F 53.1 ° F 36% 29.99 pul 10.0 mi Sur 10.4 mph 21.9 mph N/A   Despejado
7:53 PM 77.0 ° F - 54.0 ° F 45% 30.01 pul 10.0 mi SSE 5.8 mph - N/A   Despejado
8:53 PM 73.9 ° F - 54.0 ° F 50% 30.03 pul 10.0 mi SE 4.6 mph - N/A   Despejado
9:53 PM 72.0 ° F - 54.0 ° F 53% 30.05 pul 10.0 mi ESE 5.8 mph - N/A   Despejado
10:53 PM 71.1 ° F - 54.0 ° F 55% 30.05 pul 10.0 mi ESE 6.9 mph - N/A   Despejado
11:53 PM 69.1 ° F - 54.0 ° F 58% 30.06 pul 10.0 mi SE 5.8 mph - N/A   Despejado